Dewpoint
29 24 26 28 29 31 31 32 30 28 29 30 35 36 36 36 40 43 46 49 52 54 55 56 56 56 57 57 56 56 54 53 52 51 51 50 47 46 46 45 44 42 41 40
29 29 27 28 28 31 31 32 32 32 31 35 36 37 38 36 39 41 44 46 48 52 54 55 56 56 55 55 55 53 53 51 49 48 46 45 44 43 42 42 42 41 40 40
29 30 31 29 29 27 31 32 33 32 33 36 36 36 37 38 38 39 41 43 44 47 51 54 54 55 54 53 49 50 48 47 47 46 44 43 42 42 40 39 38 38 38 38
30 32 27 31 31 30 28 30 33 33 34 34 35 37 38 38 38 38 39 40 42 43 45 49 50 50 48 49 49 47 46 45 44 42 42 42 40 38 36 36 35 35 34 34
32 32 34 36 35 33 31 30 31 35 35 34 36 36 37 40 40 39 38 40 41 42 42 43 46 47 47 47 46 45 44 42 42 42 40 38 36 35 34 34 33 33 33 31
32 31 30 32 37 38 37 32 32 31 33 36 36 35 36 38 42 41 43 43 42 43 44 44 46 46 45 43 42 41 40 40 40 40 38 36 35 34 34 33 33 33 32 33
32 31 34 38 37 40 35 34 37 36 32 33 36 37 38 43 43 44 44 44 44 44 44 44 44 43 41 41 40 40 37 38 38 37 36 35 34 33 33 33 33 32 32 32
32 31 29 37 36 38 38 35 36 39 38 38 38 40 42 42 43 43 43 43 43 43 43 43 42 42 40 36 34 35 35 35 34 34 34 34 33 33 32 32 32 31 31 31
35 33 38 38 35 36 36 33 35 38 39 40 41 41 42 42 43 42 43 43 43 42 41 41 42 42 38 36 36 35 34 33 33 33 33 33 33 32 31 31 32 31 31 29
36 38 40 41 40 36 35 34 39 40 40 40 40 39 37 40 42 42 42 42 41 40 39 39 40 39 37 36 36 35 33 33 33 33 33 31 31 31 29 31 31 28 30 30
36 37 40 40 40 38 36 40 40 39 39 39 40 40 41 41 42 41 41 42 41 40 38 37 38 37 37 36 35 34 33 33 33 33 30 30 30 32 32 27 29 31 30 30
34 38 37 39 39 38 38 38 39 39 39 40 40 40 41 41 41 41 41 41 40 40 38 37 37 36 36 35 34 34 33 33 33 33 31 31 31 30 33 32 32 33 32 30
37 39 38 41 41 37 36 39 39 39 39 39 40 40 40 40 40 40 41 40 40 40 38 37 36 36 36 35 34 34 33 32 32 32 32 31 31 30 28 31 33 33 33 32
40 38 37 37 37 36 36 38 40 39 40 39 40 40 40 39 38 38 40 40 40 39 37 35 34 34 35 35 34 34 33 32 32 32 32 31 31 30 29 28 27 28 32 32
38 36 37 37 33 35 36 36 36 36 37 37 38 38 38 37 36 36 36 36 38 37 36 34 34 33 34 34 33 33 33 33 33 33 32 32 28 28 28 26 24 22 27 28
34 31 31 31 31 33 32 32 31 32 33 33 32 31 31 31 33 35 35 36 35 35 35 34 33 33 33 32 31 31 32 31 31 30 29 31 30 28 27 26 22 23 19 22
34 33 33 32 31 31 30 29 30 30 30 30 31 31 31 32 33 33 32 32 32 33 33 34 33 34 33 34 33 33 32 32 29 32 32 32 30 28 27 25 22 21 18 16
33 36 35 33 28 27 28 29 28 28 29 32 32 31 30 29 30 31 31 32 32 32 32 33 33 33 34 34 34 33 33 33 33 32 32 31 30 29 27 24 22 21 20 16
30 31 33 30 29 29 29 29 30 32 31 31 30 29 29 30 31 32 33 32 32 31 31 32 31 33 33 33 33 33 33 32 32 31 31 31 30 28 26 22 20 19 23 20
33 34 33 32 32 32 31 32 31 30 30 30 30 30 31 32 32 32 32 31 31 31 32 32 33 33 33 32 32 32 32 31 31 30 30 29 29 27 24 22 22 18 18 16
32 32 32 31 31 30 31 31 30 29 29 31 30 31 31 32 32 32 31 30 31 32 32 32 32 32 32 32 32 31 31 30 30 29 29 29 28 27 24 25 25 19 16 13
31 30 31 31 31 31 30 31 30 30 27 29 31 32 32 31 32 31 30 30 31 31 32 31 31 32 32 31 31 31 30 30 29 29 29 28 28 28 28 27 27 26 23 20
30 30 30 31 31 31 31 31 30 30 30 31 31 31 31 31 31 30 29 31 31 31 31 31 31 30 31 31 31 30 30 29 29 29 29 29 29 29 28 28 28 25 19 18
30 30 30 30 31 31 31 31 31 30 29 31 31 31 31 30 30 28 30 31 30 31 31 30 30 29 30 30 29 27 21 23 29 29 29 29 29 29 29 28 27 27 25 20
29 30 30 30 30 31 31 32 31 31 31 31 31 31 30 29 27 29 30 31 29 29 29 30 29 28 28 22 29 20 21 28 29 29 29 29 29 29 28 26 25 26 26 25
29 29 30 30 31 32 32 31 30 31 31 30 31 31 30 31 30 28 26 26 29 29 29 29 28 28 29 28 26 22 24 27 29 29 29 29 29 28 27 26 26 26 26 26
29 30 30 31 32 32 32 32 31 30 31 31 31 32 31 30 30 28 28 28 28 28 29 29 29 28 29 25 28 28 27 27 28 28 28 29 29 28 27 27 27 27 27 26
Lifted_Index
5 4 3 2 2 2 2 2 2 2 3 3 3 3 2 2 2 2 2 1 0 -0 -1 -1 -1 -1 -1 -1 -1 -1 -2 -2 -2 -1 -0 -0 -1 -1 -1 -1 -0 1 2 2
5 4 3 2 3 2 2 2 2 3 4 4 3 3 3 2 2 2 2 1 1 -0 -1 -1 -1 -2 -1 -1 -1 -2 -2 -2 -2 -1 -0 -0 -1 -1 -0 0 1 2 3 4
4 3 3 3 4 4 3 3 3 3 4 4 3 3 3 2 2 2 2 2 1 0 -1 -1 -2 -2 -2 -2 -2 -2 -2 -2 -2 -1 -0 -0 0 1 2 3 4 5 5 6
3 2 2 4 5 5 4 4 4 4 4 4 3 3 3 2 2 2 2 2 1 1 -0 -1 -2 -2 -2 -2 -2 -2 -2 -1 -1 -0 0 1 2 3 4 5 6 6 6 7
2 2 2 4 5 5 4 4 4 4 4 3 3 3 3 2 2 2 2 2 1 1 0 -0 -1 -1 -1 -2 -2 -2 -1 -0 0 1 2 3 4 5 6 7 8 7 7 7
1 1 2 4 4 4 3 4 4 4 4 3 3 3 2 2 2 2 2 2 1 1 0 -0 -0 -0 -0 -1 -1 -1 -1 0 2 3 4 4 5 6 7 8 8 8 8 8
1 1 2 3 3 2 2 3 3 3 3 3 3 3 2 2 2 2 2 1 1 0 -0 -0 0 0 -0 -0 -1 -0 1 2 3 4 5 5 5 6 7 8 9 9 9 10
1 1 2 2 2 2 2 2 2 2 2 2 2 2 2 1 1 1 1 1 1 0 0 0 0 0 0 -0 0 2 3 4 5 5 5 6 6 7 8 9 9 10 10 10
2 2 2 2 2 2 2 2 2 2 1 2 2 2 1 1 1 1 2 2 1 1 1 1 1 1 1 1 2 3 5 5 5 6 6 7 7 8 9 9 10 9 9 9
2 2 2 2 2 2 2 3 3 2 2 2 2 2 2 2 2 2 2 2 2 1 1 1 2 2 3 3 4 5 6 6 6 7 7 8 9 9 10 9 9 9 8 8
1 1 1 2 2 2 3 3 3 3 3 3 3 3 3 3 3 3 3 3 3 2 2 2 3 4 4 5 6 6 7 7 7 8 8 9 9 10 9 9 8 8 8 8
1 1 1 2 2 2 2 3 3 3 3 3 3 3 4 4 4 4 4 4 4 4 3 4 4 5 6 7 7 7 7 7 8 8 9 9 9 9 8 8 8 9 9 9
1 1 1 2 2 2 2 2 3 3 3 3 3 3 4 4 5 5 5 5 5 5 5 5 6 7 7 7 7 7 7 7 8 8 8 8 8 8 8 8 8 9 9 9
1 1 1 2 2 2 2 2 3 3 3 3 3 3 4 4 5 5 5 5 5 5 5 6 7 7 7 7 7 7 7 7 7 8 8 8 8 7 8 8 8 8 9 9
1 1 1 1 1 2 2 2 2 2 3 3 3 3 4 4 5 6 5 5 5 5 5 6 6 6 6 6 6 6 6 7 7 8 8 8 7 7 8 8 7 8 8 9
1 1 1 1 1 1 1 2 2 2 2 3 3 4 5 5 5 5 5 5 4 5 5 5 6 6 5 5 6 6 7 7 8 8 8 7 7 8 8 7 7 8 9 9
1 1 1 1 1 1 1 2 2 2 2 3 3 4 5 5 5 5 5 5 5 6 6 6 6 6 5 6 6 7 7 8 8 8 7 7 8 8 8 7 8 8 9 9
1 1 1 1 1 1 2 2 3 3 3 3 4 4 5 5 6 6 6 7 7 7 8 7 7 6 6 7 7 7 8 8 8 7 7 7 8 8 8 8 8 8 9 9
2 2 2 2 2 3 3 4 4 4 4 4 5 5 6 6 7 8 8 8 8 8 8 8 8 7 7 7 7 8 8 8 7 7 7 7 7 7 8 8 8 8 9 9
2 2 2 3 3 4 4 5 5 5 5 6 6 7 7 8 8 8 9 9 9 9 9 8 8 8 8 7 7 7 7 7 7 7 7 7 7 8 8 8 8 8 9 9
2 2 3 3 4 5 5 6 6 6 6 7 7 8 8 8 8 9 8 9 9 9 9 8 8 8 7 7 7 7 7 7 7 7 7 7 7 8 8 8 8 8 9 9
4 4 4 5 5 5 6 6 6 7 7 7 7 7 8 8 8 8 8 9 9 9 9 8 8 7 7 7 7 7 7 7 7 7 7 8 8 8 8 8 8 9 9 9
6 6 6 6 6 6 6 6 7 7 7 7 7 7 8 8 8 9 9 9 9 9 9 8 8 7 7 7 7 7 7 7 7 8 8 8 8 8 9 9 9 9 10 10
7 7 7 7 6 6 6 6 7 7 7 7 7 8 8 8 8 8 9 9 8 8 8 8 8 8 7 7 7 7 7 8 8 8 9 9 9 9 9 10 10 10 10 10
7 8 8 8 7 7 7 7 7 7 7 7 7 8 8 8 8 8 8 8 8 8 8 8 8 8 8 8 8 8 9 9 9 9 9 9 9 10 10 10 10 11 11 11
8 8 8 8 8 7 7 7 7 6 6 6 7 7 7 7 7 8 8 8 8 7 7 7 8 9 9 9 10 10 10 10 10 10 10 10 10 10 10 10 11 11 11 11
7 7 7 7 7 7 7 7 6 6 6 6 6 6 6 7 7 8 8 8 8 7 7 7 8 9 9 10 10 11 11 10 10 10 10 10 11 11 11 10 11 11 11 11